COSMOS 1934

导读

COSMOS 1934(宇宙1934)是隶属于苏联/独联体(CIS)“宇宙”卫星系列的人造卫星,于1988年3月22日08:00发射升空。宇宙卫星系列多混编军用与科学任务,该卫星作为冷战末期苏联航天活动的组成部分,延续了系列任务特性,服务于空间探测或军事应用相关领域,是当时苏联航天体系持续组网部署空间资产的典型发射任务。

基本信息
目录编号:
18985
目录名称:
COSMOS 1934
国际标识:
1988-023A
轨道中心:
EARTH
卫星名称:
COSMOS 1934
卫星全名:
--
卫星状态:
在轨 (已飞行14052 天)
发射日期:
1988-03-22 UTC
国别 :
俄罗斯(独联体) (CIS)
星等 :
--
该卫星已列入 空间交会检测服务 Space Conjunction Data Service (SCDS) ,当前飞行风险评估等级: 无高风险
轨道信息
数据来源 国际轨道数据 AOE轨道数据
星历时间 2026-09-10T22:01:33+0800
16小时前
查看轨道信息
2026-09-09T22:00:00+0800
1天前
查看轨道信息
半长轴 7353.798km 7353.798km
偏心率 0.0039864 0.0039928
轨道倾角 82.952° 82.952°
近地点辐角 248.690° 251.622°
升交点赤经 91.732° 92.474°
平近点角 110.999° 189.450°
近地点 946.345km 946.298km
远地点 1004.977km 1005.024km
周期 104.599分钟 104.599分钟
每日圈数 13.766873 13.766872
详细信息
使用方式:
暂无
2D轨道图
3D轨道图
轨道高度分析图
轨道倾角分析图
轨道综合分析图
查看轨道综合分析图
与全量物体交会距离演化趋势
与全量物体交会风险概率演化趋势